Weather Roundup
Issued by NWS Corpus Christi, TX

Current Version | Previous Version | Text Only | Print | Product List | Glossary On
Versions: 1 2 3 4 5 6 7 8 9 10 11 12 13 14 15 16 17 18 19 20 21 22 23 24 25 26 27 28 29 30 31 32 33 34 35 36 37 38 39 40 41 42 43 44 45 46 47 48 49 50
000
ASUS44 KCRP 250110
HRRCRP

SOUTH TEXAS REGIONAL WEATHER ROUNDUP
NATIONAL WEATHER SERVICE CORPUS CHRISTI TX
800 PM CDT FRI MAR 24 2017


TXZ229>244-250200-
...CORPUS CHRISTI AREA OBSERVATIONS...

CITY           SKY/WX    TMP DP  RH WIND       PRES   REMARKS
CORPUS CHRISTI PTCLDY    76  67  73 S21       29.89R
NAS CORPUS CHR CLEAR    N/A N/A N/A S21G31    29.88S
ROCKPORT       CLEAR     74  68  81 S12G24    29.90R
KINGSVILLE NAS MOCLDY    78  68  71 SE14G24   29.87S
ALICE          CLEAR     78  65  63 SE12      29.87R
ORANGE GROVE   CLEAR     78  68  71 S14       29.89R
FALFURRIAS     PTCLDY    81  65  58 S13       29.87R
$$

...VICTORIA AREA OBSERVATIONS...

CITY           SKY/WX    TMP DP  RH WIND       PRES   REMARKS
VICTORIA       CLOUDY    75  66  73 S20G25    29.91R
BEEVILLE       FAIR      77  68  74 S12G17    29.89R
PLEASANTON     CLEAR     77  58  51 S3        29.88R
SAN ANTONIO    CLEAR     76  28  17 SW7       29.89R
$$

...LAREDO AREA OBSERVATIONS...

CITY           SKY/WX    TMP DP  RH WIND       PRES   REMARKS
LAREDO         CLEAR     82  61  48 E7        29.87R
COTULLA        CLEAR     80  57  45 E6        29.88R
DEL RIO        CLEAR     79  26  14 NW5       29.87R
MCALLEN        CLEAR     80  66  62 SE15      29.90R
HEBBRONVILLE   CLEAR     78  60  52 N5        29.89R
$$

...OTHER TEXAS OBSERVATIONS...

CITY           SKY/WX    TMP DP  RH WIND       PRES   REMARKS
BROWNSVILLE    CLEAR     76  70  82 SE17      29.91S
HOUSTON        CLOUDY    75  67  76 S17G30    29.91R
COL. STATION   PTCLDY    67  62  84 S8        29.87R
AUSTIN         PTCLDY    76  59  55 S9        29.86R
WACO           CLEAR     66  53  63 S8        29.82R
FORT WORTH     PTCLDY    78  32  18 SW16      29.75R
WICHITA FALLS  CLEAR     65  37  35 W23G33    29.75R
LUBBOCK        PTCLDY    56  33  42 N30G39    29.97R
EL PASO        PTCLDY    71  20  14 W14G21    30.04R
$$

...MARINE OBSERVATIONS...

STATION/POSITION TIME  SKY/WX   TEMP    WIND        PRES    VSBY  WAVE   SWELL
                                AIR SEA DIR/SP/G                  HT/PER HT/PER
                 (UTC)          (F)     (DEG/KT/KT) (MB)    (MI)  (FT/S) (FT/S)
PORT ARANSAS     0000            72 72  150/ 19/ 21 1012.3R
BUOY 90 E PORT A 2350            74 72  150/ 21/ 25 1013.4          8/ 8   7/ 8
BUOY 45 SE BAFFI 2350            74     160/ 17/ 19 1011.9          9/ 9   7/ 9
BUOY 200 E PT IS 2350            76 76  150/ 19/ 23 1015.9          9/ 8   3/16
BUOY 15 E GALVES 2350            72 70  150/ 19/ 23 1014.1          7/ 8
$$




USA.gov is the U.S. government's official web portal to all federal, state and local government web resources and services.